EW2464 Weather Reports


Display with metric or nautical units.
time (UTC)temp
F
wind
direction
speed
MPH
gust
MPH
rain 1hr
in
rain 24hr
in
rain mn
in
humidity
%
barometer
mb
20200526131535 63 186 0.0 7.0 0.00 0.00 0.00 94 1023.4
20200526131033 63 186 2.0 7.0 0.00 0.00 0.00 94 1023.4
20200526130528 63 158 1.0 5.0 0.00 0.00 0.00 95 1023.4
20200526130055 62 158 2.0 5.0 0.00 0.00 0.00 95 1023.4
20200526125527 62 157 0.0 2.0 0.00 0.00 0.00 95 1023.3
20200526125032 62 157 0.0 3.0 0.00 0.00 0.00 95 1023.4
20200526124542 62 157 0.0 3.0 0.00 0.00 0.00 96 1023.4
20200526124033 62 157 0.0 3.0 0.00 0.00 0.00 96 1023.3
20200526123545 61 156 0.0 5.0 0.00 0.00 0.00 96 1023.4
20200526123049 61 157 2.0 5.0 0.00 0.00 0.00 96 1023.3
20200526122536 61 204 0.0 3.0 0.00 0.00 0.00 96 1023.4
20200526122030 61 204 0.0 4.0 0.00 0.00 0.00 96 1023.4
20200526121536 61 204 0.0 4.0 0.00 0.00 0.00 96 1023.4
20200526121022 61 178 0.0 4.0 0.00 0.00 0.00 97 1023.4
20200526120522 61 178 0.0 4.0 0.00 0.00 0.00 97 1023.4
20200526120030 61 178 1.0 5.0 0.00 0.00 0.00 97 1023.4
20200526115521 60 178 2.0 5.0 0.00 0.00 0.00 97 1023.3
20200526115020 60 190 1.0 4.0 0.00 0.00 0.00 97 1023.4
20200526114557 61 190 0.0 5.0 0.00 0.00 0.00 97 1023.4
20200526114019 61 151 0.0 3.0 0.00 0.00 0.00 97 1023.4
20200526113520 61 151 0.0 3.0 0.00 0.00 0.00 97 1023.4
20200526113125 60 163 0.0 3.0 0.00 0.00 0.00 97 1023.3
20200526112519 60 163 0.0 4.0 0.00 0.00 0.00 97 1023.3
20200526112025 60 225 0.0 5.0 0.00 0.00 0.00 97 1023.1
20200526111533 60 190 1.0 5.0 0.00 0.00 0.00 97 1023.1
20200526111018 61 161 0.0 4.0 0.00 0.00 0.00 97 1023.0
20200526110517 60 161 0.0 2.0 0.00 0.00 0.00 97 1023.0
20200526110103 60 161 0.0 3.0 0.00 0.00 0.00 97 1023.0
20200526105516 60 161 1.0 3.0 0.00 0.00 0.00 97 1023.0
20200526105033 60 161 1.0 3.0 0.00 0.00 0.00 97 1023.1
20200526104516 60 161 0.0 3.0 0.00 0.00 0.00 97 1023.2
20200526104015 60 161 0.0 3.0 0.00 0.00 0.00 97 1023.1
20200526103524 60 161 0.0 3.0 0.00 0.00 0.00 97 1023.2
20200526103030 60 161 0.0 1.0 0.00 0.00 0.00 97 1023.1
20200526102529 61 161 0.0 1.0 0.00 0.00 0.00 97 1023.2
20200526102017 61 161 0.0 0.0 0.00 0.00 0.00 97 1023.2
20200526101542 60 161 0.0 1.0 0.00 0.00 0.00 97 1023.1
20200526101017 60 161 0.0 1.0 0.00 0.00 0.00 97 1023.2
20200526100516 60 161 0.0 2.0 0.00 0.00 0.00 97 1023.2
20200526100023 60 161 0.0 2.0 0.00 0.00 0.00 97 1023.1
20200526095512 60 161 0.0 2.0 0.00 0.00 0.00 97 1023.0
20200526095015 60 161 0.0 2.0 0.00 0.00 0.00 97 1023.1
20200526094644 60 161 0.0 0.0 0.00 0.00 0.00 97 1023.1
20200526094012 60 161 0.0 2.0 0.00 0.00 0.00 97 1023.0
20200526093512 60 161 0.0 2.0 0.00 0.00 0.00 97 1023.0
20200526093037 60 161 0.0 2.0 0.00 0.00 0.00 96 1023.0
20200526092511 60 161 0.0 0.0 0.00 0.00 0.00 96 1022.9
20200526092011 61 161 0.0 1.0 0.00 0.00 0.00 96 1023.0
20200526091544 61 161 0.0 1.0 0.00 0.00 0.00 96 1022.9
20200526091015 61 161 0.0 3.0 0.00 0.00 0.00 96 1022.8
20200526090512 60 161 0.0 4.0 0.00 0.00 0.00 96 1022.8
20200526090033 61 161 0.0 1.0 0.00 0.00 0.00 96 1022.7
20200526085526 60 161 0.0 3.0 0.00 0.00 0.00 96 1022.7
20200526085013 61 161 0.0 5.0 0.00 0.00 0.00 96 1022.7
20200526084524 61 161 0.0 5.0 0.00 0.00 0.00 96 1022.7
20200526084014 61 161 0.0 2.0 0.00 0.00 0.00 96 1022.6
20200526083509 61 161 0.0 2.0 0.00 0.00 0.00 96 1022.6
20200526083009 61 161 0.0 5.0 0.00 0.00 0.00 96 1022.4
20200526082509 61 161 1.0 5.0 0.00 0.00 0.00 96 1022.3
20200526082021 61 161 0.0 3.0 0.00 0.00 0.00 96 1022.3
20200526081520 61 161 0.0 5.0 0.00 0.00 0.00 96 1022.2
20200526081008 61 178 0.0 5.0 0.00 0.00 0.00 96 1022.3
20200526080508 61 178 2.0 5.0 0.00 0.00 0.00 96 1022.4
20200526080037 61 192 0.0 2.0 0.00 0.00 0.00 96 1022.4
20200526075509 61 192 0.0 3.0 0.00 0.00 0.00 96 1022.5
20200526075009 61 192 0.0 6.0 0.00 0.00 0.00 96 1022.4
20200526074508 61 192 1.0 6.0 0.00 0.00 0.00 96 1022.5
20200526074007 61 188 2.0 5.0 0.00 0.00 0.00 96 1022.4
20200526073506 61 180 0.0 4.0 0.00 0.00 0.00 96 1022.3
20200526073010 61 180 1.0 4.0 0.00 0.00 0.00 96 1022.4
20200526072511 61 155 0.0 5.0 0.00 0.00 0.00 96 1022.3
20200526072005 61 175 0.0 3.0 0.00 0.00 0.00 96 1022.3
20200526071512 61 175 0.0 3.0 0.00 0.00 0.00 96 1022.4
20200526071009 61 175 0.0 4.0 0.00 0.00 0.00 96 1022.5
20200526070505 61 175 0.0 4.0 0.00 0.00 0.00 96 1022.5
20200526070005 61 172 1.0 4.0 0.00 0.00 0.00 96 1022.5
20200526065512 61 171 0.0 4.0 0.00 0.00 0.00 96 1022.5
20200526065003 61 172 0.0 4.0 0.00 0.00 0.00 96 1022.5
20200526064505 61 171 0.0 3.0 0.00 0.00 0.00 96 1022.4
20200526064004 61 171 0.0 5.0 0.00 0.00 0.00 96 1022.5
20200526063506 61 171 1.0 5.0 0.00 0.00 0.00 96 1022.5
20200526063007 61 198 1.0 4.0 0.00 0.00 0.00 96 1022.6
20200526062510 61 198 0.0 3.0 0.00 0.00 0.00 96 1022.6
20200526062002 61 198 0.0 3.0 0.00 0.00 0.00 96 1022.6
20200526061501 61 198 0.0 3.0 0.00 0.00 0.00 96 1022.6
20200526061002 61 198 0.0 1.0 0.00 0.00 0.00 96 1022.7
20200526060601 61 198 0.0 3.0 0.00 0.00 0.00 96 1022.6
20200526060004 61 198 0.0 3.0 0.00 0.00 0.00 96 1022.7
20200526055604 61 198 0.0 2.0 0.00 0.00 0.00 96 1022.7
20200526055102 61 198 0.0 3.0 0.00 0.00 0.00 96 1022.8
20200526054620 61 198 0.0 3.0 0.00 0.00 0.00 96 1022.7
20200526054059 61 198 0.0 1.0 0.00 0.00 0.00 96 1022.8
20200526053612 61 198 0.0 1.0 0.00 0.00 0.00 96 1022.9
20200526053124 61 198 0.0 2.0 0.00 0.00 0.00 96 1023.0
20200526052601 61 198 0.0 2.0 0.00 0.00 0.00 96 1022.9
20200526052058 61 198 0.0 2.0 0.00 0.00 0.00 96 1022.9
20200526051622 61 198 0.0 4.0 0.00 0.00 0.00 96 1022.8
20200526051057 61 198 1.0 5.0 0.00 0.00 0.00 96 1022.8
20200526050559 61 146 2.0 5.0 0.00 0.00 0.00 96 1022.8
20200526050408 61 171 0.0 4.0 0.00 0.00 0.00 96 1022.9
20200526045556 61 171 1.0 4.0 0.00 0.00 0.00 96 1022.8
20200526045055 60 261 0.0 0.0 0.00 0.00 0.00 96 1022.8
20200526044621 60 261 0.0 0.0 0.00 0.00 0.00 97 1022.8
20200526044054 60 261 0.0 0.0 0.00 0.00 0.00 96 1022.8
20200526043608 60 261 0.0 0.0 0.00 0.00 0.00 96 1022.9
20200526043248 59 261 0.0 0.0 0.00 0.00 0.00 96 1022.9
20200526042551 59 261 0.0 0.0 0.00 0.00 0.00 96 1023.0
20200526042056 59 261 0.0 0.0 0.00 0.00 0.00 96 1023.0
20200526041701 59 261 0.0 0.0 0.00 0.00 0.00 96 1022.9
20200526041050 59 261 0.0 0.0 0.00 0.00 0.00 96 1023.0
20200526040550 59 261 0.0 0.0 0.00 0.00 0.00 96 1023.0
20200526040142 59 261 0.0 0.0 0.00 0.00 0.00 96 1023.0
20200526035547 60 261 0.0 0.0 0.00 0.00 0.00 96 1022.9
20200526035048 60 261 0.0 0.0 0.00 0.00 0.00 96 1022.9
20200526034553 60 261 0.0 0.0 0.00 0.00 0.00 96 1022.9
20200526034059 60 261 0.0 0.0 0.00 0.00 0.00 96 1023.0
20200526033547 60 261 0.0 0.0 0.00 0.00 0.00 96 1023.0
20200526033159 60 261 0.0 0.0 0.00 0.00 0.00 96 1023.0
20200526032608 60 261 0.0 0.0 0.00 0.00 0.00 96 1023.0
20200526032053 60 261 0.0 0.0 0.00 0.00 0.00 95 1022.9
20200526031643 60 261 0.0 0.0 0.00 0.00 0.00 96 1022.8
20200526031057 60 261 0.0 0.0 0.00 0.00 0.00 96 1022.8
20200526030546 60 261 0.0 0.0 0.00 0.00 0.00 95 1022.7
20200526030126 60 261 0.0 0.0 0.00 0.00 0.00 95 1022.8
20200526025550 60 261 0.0 0.0 0.00 0.00 0.00 95 1022.7
20200526025050 60 261 0.0 0.0 0.00 0.00 0.00 95 1022.7
20200526024620 61 261 0.0 0.0 0.00 0.00 0.00 95 1022.6
20200526024106 61 261 0.0 0.0 0.00 0.00 0.00 95 1022.6
20200526023546 61 261 0.0 0.0 0.00 0.00 0.00 95 1022.7
20200526023057 61 261 0.0 0.0 0.00 0.00 0.00 95 1022.7
20200526022545 61 261 0.0 0.0 0.00 0.00 0.00 95 1022.7
20200526022054 61 261 0.0 0.0 0.00 0.00 0.00 95 1022.7
20200526021635 61 261 0.0 0.0 0.00 0.00 0.00 94 1022.7
20200526021044 61 261 0.0 0.0 0.00 0.00 0.00 94 1022.6
20200526020552 62 261 0.0 0.0 0.00 0.00 0.00 94 1022.7
20200526020217 62 261 0.0 0.0 0.00 0.00 0.00 94 1022.5
20200526015544 62 261 0.0 0.0 0.00 0.00 0.00 94 1022.4
20200526015044 62 261 0.0 0.0 0.00 0.00 0.00 94 1022.3
20200526014603 62 261 0.0 0.0 0.00 0.00 0.00 93 1022.3
20200526014043 63 261 0.0 0.0 0.00 0.00 0.00 93 1022.3
20200526013542 63 261 0.0 0.0 0.00 0.00 0.00 93 1022.3
20200526013135 63 261 0.0 0.0 0.00 0.00 0.00 92 1022.3
20200526012542 63 261 0.0 1.0 0.00 0.00 0.00 92 1022.2
20200526012042 64 261 0.0 1.0 0.00 0.00 0.00 91 1022.2
20200526011633 64 261 0.0 1.0 0.00 0.00 0.00 91 1022.2
20200526011106 65 261 0.0 0.0 0.00 0.00 0.00 91 1022.1
20200526010601 65 261 0.0 1.0 0.00 0.00 0.00 90 1021.9
20200526010058 65 261 0.0 1.0 0.00 0.00 0.00 90 1021.8
20200526005540 65 261 0.0 3.0 0.00 0.00 0.00 89 1021.8
20200526004603 66 177 0.0 3.0 0.00 0.00 0.00 89 1021.8
20200526004041 66 175 0.0 1.0 0.00 0.00 0.00 89 1021.8
20200526003541 66 175 0.0 2.0 0.00 0.00 0.00 89 1021.8
20200526003116 66 175 0.0 2.0 0.00 0.00 0.00 89 1021.8
20200526002541 66 175 0.0 0.0 0.00 0.00 0.00 88 1021.8
20200526002039 67 175 0.0 0.0 0.00 0.00 0.00 88 1021.7
20200526001621 67 175 0.0 0.0 0.00 0.00 0.00 87 1021.7
20200526001042 67 175 0.0 0.0 0.00 0.00 0.00 87 1021.7
20200526000538 67 175 0.0 0.0 0.00 0.00 0.00 86 1021.7
20200526000048 68 175 0.0 0.0 0.00 0.00 0.00 86 1021.7
20200525235553 68 175 0.0 2.0 0.00 0.00 0.00 85 1021.6
20200525235038 68 175 0.0 1.0 0.00 0.00 0.00 85 1021.5
20200525234602 68 175 0.0 2.0 0.00 0.00 0.00 84 1021.6
20200525234038 68 175 0.0 3.0 0.00 0.00 0.00 84 1021.6
20200525233543 68 175 1.0 4.0 0.00 0.00 0.00 83 1021.6
20200525233228 69 175 1.0 4.0 0.00 0.00 0.00 83 1021.5
20200525232538 69 249 1.0 6.0 0.00 0.00 0.00 82 1021.6
20200525232050 69 163 2.0 6.0 0.00 0.00 0.00 82 1021.6
20200525231616 69 202 1.0 6.0 0.00 0.00 0.00 82 1021.7
20200525231036 69 152 1.0 6.0 0.00 0.00 0.00 81 1021.7
20200525230550 69 198 1.0 6.0 0.00 0.00 0.00 82 1021.7
20200525230108 69 203 0.0 2.0 0.00 0.00 0.00 81 1021.6
20200525225540 70 203 0.0 2.0 0.00 0.00 0.00 82 1021.6
20200525225035 69 203 0.0 2.0 0.00 0.00 0.00 82 1021.6
20200525224603 69 203 0.0 2.0 0.00 0.00 0.00 82 1021.6
20200525224036 69 203 0.0 2.0 0.00 0.00 0.00 82 1021.6
20200525223539 69 203 0.0 1.0 0.00 0.00 0.00 81 1021.7
20200525223135 69 203 0.0 4.0 0.00 0.00 0.00 82 1021.7
20200525222534 69 203 0.0 6.0 0.00 0.00 0.00 81 1021.7
20200525222035 69 181 2.0 6.0 0.00 0.00 0.00 81 1021.7
20200525221619 69 190 0.0 6.0 0.00 0.00 0.00 81 1021.7
20200525221034 69 188 1.0 6.0 0.00 0.00 0.00 81 1021.8
20200525220534 69 176 0.0 8.0 0.00 0.00 0.00 82 1021.8
20200525220043 69 175 1.0 8.0 0.00 0.00 0.00 81 1021.8
20200525215538 69 198 2.0 6.0 0.00 0.00 0.00 81 1021.7
20200525215035 69 171 2.0 5.0 0.00 0.00 0.00 80 1021.7
20200525214609 69 184 0.0 4.0 0.00 0.00 0.00 81 1021.6
20200525214032 69 155 1.0 6.0 0.00 0.00 0.00 80 1021.7
20200525213540 69 175 3.0 8.0 0.00 0.00 0.00 80 1021.7
20200525213110 70 136 0.0 6.0 0.00 0.00 0.00 80 1021.8
20200525212551 69 205 1.0 3.0 0.00 0.00 0.00 80 1021.8
20200525212034 69 167 0.0 5.0 0.00 0.00 0.00 80 1021.7
20200525211611 69 165 1.0 6.0 0.00 0.00 0.00 80 1021.7
20200525211030 69 223 1.0 8.0 0.00 0.00 0.00 80 1021.8
20200525210531 69 193 2.0 5.0 0.00 0.00 0.00 81 1021.9
20200525210037 69 198 2.0 4.0 0.00 0.00 0.00 81 1021.9
20200525205552 69 155 1.0 5.0 0.00 0.00 0.00 80 1022.1
20200525205032 69 215 1.0 4.0 0.00 0.00 0.00 80 1022.1
20200525204545 69 180 1.0 6.0 0.00 0.00 0.00 80 1022.1
20200525204040 69 155 2.0 6.0 0.00 0.00 0.00 79 1022.2
20200525203526 69 188 3.0 6.0 0.00 0.00 0.00 79 1022.2
20200525203121 69 265 0.0 5.0 0.00 0.00 0.00 79 1022.2
20200525202541 69 313 2.0 5.0 0.00 0.00 0.00 80 1022.3
20200525202023 68 184 1.0 7.0 0.00 0.00 0.00 80 1022.4
20200525201535 68 201 4.0 7.0 0.00 0.00 0.00 80 1022.4
20200525201046 68 165 0.0 6.0 0.00 0.00 0.00 79 1022.5
20200525200521 68 117 2.0 8.0 0.00 0.00 0.00 80 1022.5
20200525200023 68 159 4.0 8.0 0.00 0.00 0.00 80 1022.6
20200525195518 68 184 3.0 7.0 0.00 0.00 0.00 80 1022.6
20200525195023 68 132 2.0 6.0 0.00 0.00 0.00 81 1022.7
20200525194525 67 129 1.0 8.0 0.00 0.00 0.00 81 1022.7
20200525194018 68 138 4.0 7.0 0.00 0.00 0.00 80 1022.7
20200525193516 67 161 1.0 5.0 0.00 0.00 0.00 80 1022.7
20200525193027 67 186 1.0 5.0 0.00 0.00 0.00 81 1022.8
20200525192514 67 184 0.0 5.0 0.00 0.00 0.00 82 1022.9
20200525192013 66 184 1.0 8.0 0.00 0.00 0.00 82 1023.0
20200525191516 66 137 4.0 8.0 0.00 0.00 0.00 81 1023.0
20200525191010 65 145 1.0 6.0 0.00 0.00 0.00 83 1023.1
20200525190509 65 105 3.0 6.0 0.00 0.00 0.00 83 1023.1
20200525190009 65 155 2.0 6.0 0.00 0.00 0.00 84 1023.2
20200525185507 65 223 0.0 5.0 0.00 0.00 0.00 84 1023.2
20200525185007 64 193 2.0 5.0 0.00 0.00 0.00 84 1023.4
20200525184520 64 171 0.0 4.0 0.00 0.00 0.00 84 1023.4
20200525184005 64 169 1.0 3.0 0.00 0.00 0.00 84 1023.4
20200525183504 64 169 0.0 5.0 0.00 0.00 0.00 84 1023.5
20200525183005 64 193 1.0 5.0 0.00 0.00 0.00 83 1023.6
20200525182510 64 194 0.0 2.0 0.00 0.00 0.00 83 1023.7
20200525182004 64 194 0.0 5.0 0.00 0.00 0.00 84 1023.8
20200525181509 64 194 1.0 5.0 0.00 0.00 0.00 83 1023.8
20200525181001 64 175 2.0 6.0 0.00 0.00 0.00 83 1023.8
20200525180501 64 173 1.0 4.0 0.00 0.00 0.00 83 1023.8
20200525175559 63 290 1.0 4.0 0.00 0.00 0.00 85 1023.8
20200525175113 63 158 2.0 5.0 0.00 0.00 0.00 85 1023.9
20200525174630 63 119 1.0 2.0 0.00 0.00 0.00 85 1023.9
20200525174058 63 348 0.0 3.0 0.00 0.00 0.00 85 1023.9
20200525173557 62 348 0.0 3.0 0.00 0.00 0.00 86 1024.0
20200525173257 61 37 0.0 2.0 0.00 0.00 0.00 87 1024.0
20200525172601 61 37 0.0 3.0 0.00 0.00 0.00 86 1024.1
20200525172055 61 14 0.0 3.0 0.00 0.00 0.00 86 1024.1
20200525171652 61 14 1.0 3.0 0.00 0.00 0.00 87 1024.1
20200525171054 61 288 0.0 2.0 0.00 0.00 0.00 87 1024.1
20200525170553 60 288 0.0 3.0 0.00 0.00 0.00 87 1024.2
20200525170113 61 288 1.0 3.0 0.00 0.00 0.00 87 1024.2
20200525165553 61 288 0.0 3.0 0.00 0.00 0.00 86 1024.2
20200525165109 61 288 0.0 1.0 0.00 0.00 0.00 88 1024.3
20200525164634 60 288 0.0 2.0 0.00 0.00 0.00 88 1024.3
20200525164115 60 288 0.0 3.0 0.00 0.00 0.00 88 1024.2
20200525163551 60 288 0.0 3.0 0.00 0.00 0.00 89 1024.2
20200525163202 60 288 0.0 2.0 0.00 0.00 0.00 90 1024.3
20200525162604 59 288 0.0 2.0 0.00 0.00 0.00 90 1024.2
20200525162049 59 288 0.0 1.0 0.00 0.00 0.00 89 1024.2
20200525161633 59 288 0.0 2.0 0.00 0.00 0.00 88 1024.2
20200525161049 60 288 0.0 2.0 0.00 0.00 0.00 88 1024.5
20200525160605 60 288 0.0 3.0 0.00 0.00 0.00 88 1024.4
20200525160127 60 288 1.0 3.0 0.00 0.00 0.00 87 1024.3
20200525155547 59 288 1.0 4.0 0.00 0.00 0.00 87 1024.3
20200525155054 59 288 0.0 2.0 0.00 0.00 0.00 89 1024.3
20200525154601 59 288 0.0 2.0 0.00 0.00 0.00 89 1024.4
20200525154045 59 288 0.0 2.0 0.00 0.00 0.00 89 1024.5
20200525153551 59 288 0.0 3.0 0.00 0.00 0.00 90 1024.5
20200525153217 58 288 1.0 4.0 0.00 0.00 0.00 89 1024.5
20200525152605 59 13 0.0 3.0 0.00 0.00 0.00 88 1024.3
20200525152049 58 13 0.0 3.0 0.00 0.00 0.00 88 1024.3
20200525151620 58 9 0.0 2.0 0.00 0.00 0.00 89 1024.3
20200525151043 58 9 0.0 2.0 0.00 0.00 0.00 89 1024.3
20200525150544 58 319 0.0 2.0 0.00 0.00 0.00 89 1024.3
20200525150150 58 319 0.0 3.0 0.00 0.00 0.00 90 1024.3
20200525145542 57 34 0.0 3.0 0.00 0.00 0.00 91 1024.3
20200525145041 57 29 0.0 2.0 0.00 0.00 0.00 91 1024.2
20200525144559 57 29 0.0 2.0 0.00 0.00 0.00 91 1024.2
20200525144039 57 29 0.0 3.0 0.00 0.00 0.00 91 1024.3
20200525143539 56 29 0.0 3.0 0.00 0.00 0.00 91 1024.3
20200525143046 56 29 0.0 2.0 0.00 0.00 0.00 91 1024.2
20200525142549 56 29 0.0 1.0 0.00 0.00 0.00 91 1024.3
20200525142046 56 29 0.0 2.0 0.00 0.00 0.00 92 1024.4
20200525141543 56 29 0.0 2.0 0.00 0.00 0.00 92 1024.4
20200525141037 56 29 0.0 3.0 0.00 0.00 0.00 92 1024.5
20200525140535 56 330 0.0 3.0 0.00 0.00 0.00 92 1024.5
20200525140246 56 53 0.0 2.0 0.00 0.00 0.00 92 1024.5
20200525135542 56 53 0.0 2.0 0.00 0.00 0.00 93 1024.5
20200525135035 56 53 0.0 2.0 0.00 0.00 0.00 93 1024.6
20200525134558 55 53 0.0 3.0 0.00 0.00 0.00 93 1024.6
20200525134035 55 53 0.0 3.0 0.00 0.00 0.00 93 1024.7
20200525133537 55 53 0.0 2.0 0.00 0.00 0.00 94 1024.7
20200525133041 55 53 0.0 2.0 0.00 0.00 0.00 94 1024.8
20200525132532 55 53 0.0 2.0 0.00 0.00 0.00 94 1024.8
20200525132046 54 53 0.0 2.0 0.00 0.00 0.00 94 1024.8